{"data":{"norad_id":32794,"intl_designator":"2008-022A","name":"AMOS-3","alt_names":[],"object_type":"PAYLOAD","status":"ACTIVE","operator":null,"country":"ISRA","launch_date":"2008-04-28","launch_site_code":"TYMSC","launch_vehicle":null,"mission":null,"orbit_class":"UNKNOWN","rcs_meters":42.973,"size_class":null,"mass_kg":null,"dimensions":null,"purposes":["comms"],"wikipedia_slug":null,"has_3d_model":false,"image_url":null,"decayed_at":null,"tle_current":{"epoch":"2026-09-20T00:32:21.630048Z","epoch_age_seconds":55757,"freshness":"FRESH","line1":"1 32794U 08022A   26263.02247257 -.00000121  00000+0  00000+0 0  9998","line2":"2 32794   0.6924  84.6370 0002120  50.1774 310.2245  1.00272854 83282","mean_motion":1.00272854,"eccentricity":0.000212,"inclination_deg":0.6924,"raan_deg":84.637,"arg_perigee_deg":50.1774,"mean_anomaly_deg":310.2245,"bstar":0,"rev_number":8328,"period_min":1436.0815939277,"perigee_km":35777.356424703,"apogee_km":35795.234143992,"semimajor_km":42164.432284347,"source":"CELESTRAK","updated_at":"2026-09-20T09:00:35.132504Z"}}}